Location: Newark
(30.3369°N, 81.6614°W)
Time: 08:04:43
(UTC+00:00)

Envisat - Visible Passes

Search period start: 20 September 2020 00:00
Search period end: 30 September 2020 00:00
Orbit: 764 x 766 km, 98.1° (Epoch: 20 September)

Date Brightness Start Highest point End Pass type
(mag) Time Alt. Az. Time Alt. Az. Time Alt. Az.
21 Sep 6.0 23:52:46 10° SW 23:56:19 19° W 23:59:54 10° NW visible
22 Sep 5.9 10:28:02 10° NE 10:31:43 20° E 10:35:22 10° SE visible
24 Sep 5.7 23:40:46 10° SSW 23:44:54 25° W 23:49:03 10° NW visible
25 Sep 6.1 10:17:24 10° ENE 10:20:17 15° E 10:23:08 10° SE visible
27 Sep 6.4 00:08:13 10° WSW 00:10:30 13° W 00:12:48 10° WNW visible
27 Sep 5.4 10:41:30 10° NE 10:45:52 29° E 10:50:12 10° SSE visible
28 Sep 6.5 10:07:24 10° ENE 10:08:50 11° E 10:10:15 10° ESE visible
